Location: Mieders
(47.1667°N, 11.3833°E)
Time: 12:54:11
(UTC+00:00)

Daily predictions for brighter satellites

Satellite Brightness Start Highest point End
(mag) Time Altitude Azimuth Time Altitude Azimuth Time Altitude Azimuth
Cosmos 1805 Rocket 3.6 15:54:25 10° N 15:58:54 87° ENE 16:03:19 10° S
Cosmos 1356 3.3 15:57:00 10° N 16:00:26 68° ENE 16:03:50 10° SSE
SJ-7 4.3 15:57:25 10° SSE 16:01:23 78° ENE 16:05:24 10° N
BREEZE-M DEB (TANK) 4.2 15:58:30 10° W 16:02:27 79° N 16:16:29 10° E
Cosmos 2181 Rocket 4.5 15:57:18 10° SSE 16:03:12 41° E 16:09:04 10° NNE
Cosmos 1939 Rocket 4.4 16:01:53 10° E 16:04:09 15° ENE 16:06:27 10° NNE
Cosmos 389 Rocket 2.3 16:02:31 10° S 16:05:55 74° E 16:09:20 10° NNE
Cosmos 2237 Rocket 2.8 16:00:25 10° SW 16:05:56 57° WNW 16:11:31 10° NNE
Cosmos 1666 Rocket 3.8 16:01:55 10° N 16:06:15 51° ENE 16:10:35 10° SSE
Cosmos 44 3.6 16:02:24 10° NW 16:07:43 86° SW 16:13:09 10° SSE
PSLV R/B 4.0 16:04:58 10° SSE 16:09:05 88° WSW 16:13:09 10° NNW
CZ-4B R/B 3.2 16:04:21 10° SE 16:09:30 54° ENE 16:14:39 10° N
H-2A R/B 2.4 16:08:07 10° SSE 16:12:19 77° ENE 16:16:25 10° N
MOS 1-B 4.4 16:08:58 10° SSE 16:14:46 90° NE 16:20:38 10° NNW
Cosmos 2369 Rocket 2.7 16:09:54 10° NNW 16:15:13 38° NE 16:20:27 10° ESE
Cosmos 1943 Rocket 2.2 16:11:26 10° NNW 16:16:56 58° ENE 16:22:26 10° SE
ADEOS Rocket 3.7 16:09:25 10° NNE 16:17:15 88° WNW 16:24:56 10° SSW
NOAA 12 4.1 16:13:54 10° SSE 16:19:07 61° ENE 16:24:23 10° N
H-2A R/B 2.1 16:17:21 10° NNE 16:21:32 60° ESE 16:25:48 10° S
NOAA 6 4.3 16:20:44 10° S 16:25:52 75° WSW 16:31:02 10° NNW
Okean O Rocket 1.6 16:21:38 10° SSE 16:25:55 60° ENE 16:30:15 10° N
Cosmos 1782 3.6 16:23:21 10° SSE 16:26:51 31° E 16:30:23 10° NNE
Okean-O 4.1 16:25:03 10° E 16:27:49 17° ENE 16:30:35 10° NNE
CRYOSAT 2 4.4 16:24:08 10° N 16:29:05 85° E 16:33:58 10° S
H-2A R/B 4.2 16:26:51 10° S 16:30:30 41° W 16:34:14 10° NNW
Cosmos 1633 Rocket 3.0 16:26:08 10° N 16:30:32 74° E 16:34:52 10° SSE
ISS -2.9 16:27:37 10° WNW 16:30:47 36° N 16:32:58 17° ENE
Cosmos 1933 3.3 16:28:25 10° S 16:32:26 76° E 16:36:32 10° NNE
Cosmos 2218 Rocket 3.9 16:30:49 10° N 16:36:58 70° E 16:43:07 10° SSE
Cosmos 2366 rocket 3.9 16:31:46 10° N 16:37:57 68° E 16:44:03 10° SSE
ERS-2 3.1 16:36:10 15° NE 16:38:35 28° E 16:41:46 10° SSE
Meteor 1-25 Rocket 4.2 16:33:07 10° N 16:38:48 86° E 16:44:31 10° SSE
Cosmos 1867 4.2 16:34:06 10° WSW 16:39:24 52° NW 16:44:46 10° NNE
Envisat 3.9 16:37:15 10° S 16:42:12 53° W 16:47:11 10° NNW
Lacrosse 5 rocket 1.7 16:44:27 10° WSW 16:47:59 46° NNW 16:50:15 19° NE
Cosmos 773 Rocket 4.0 16:43:36 10° SSW 16:48:52 87° ESE 16:54:13 10° NNE
SL-23 DEB 4.3 16:45:48 10° SW 16:49:19 56° SE 16:52:39 21° ENE
YAOGAN 6 4.1 16:47:55 10° SSW 16:51:19 39° W 16:54:43 10° NNW
NOSS 3-2 (A) 4.3 16:46:46 10° SSE 16:51:26 27° ESE 16:54:01 20° ENE
Cosmos 1606 4.5 16:50:46 10° SW 16:54:18 33° WNW 16:57:51 10° N
FengYun 1-2 T 4.2 16:50:48 10° SSE 16:56:20 87° ENE 17:01:52 10° NNW
Feng Yun 1-1 Rocket 4.3 16:50:49 10° SSE 16:56:28 62° ENE 17:01:58 10° N
OE (NEXTSAT) 4.4 16:53:20 10° W 16:56:47 71° S 16:58:30 27° ESE
CZ-4B R/B 1.2 16:56:26 23° NNE 16:58:08 57° E 17:01:16 10° S
SL-16 R/B 2.7 16:53:29 10° SW 16:59:03 58° WNW 17:04:41 10° NNE
USA 215 4.0 16:59:20 21° E 17:02:54 35° SE 17:08:45 10° SSW
BREEZE-M DEB (TANK) 1.2 17:01:01 10° WSW 17:03:17 82° SSE 17:03:26 73° E
SMAP 4.0 17:00:56 10° S 17:05:27 50° W 17:10:00 10° NNW
Cosmos 1500 3.4 17:02:24 10° N 17:06:06 44° ENE 17:09:47 10° SSE
YAOGAN 1 3.3 17:09:19 31° ENE 17:09:19 31° ENE 17:12:57 10° N
USA 238 DEB 4.2 17:04:37 10° S 17:10:29 36° ESE 17:13:06 27° ENE
USA 238 4.2 17:04:43 10° S 17:10:35 36° ESE 17:13:10 27° ENE
Cosmos 1656 Rocket 3.7 17:05:18 10° NNW 17:10:52 55° ENE 17:16:18 10° SE
SL-24 DEB 4.3 17:07:14 10° NNE 17:11:56 58° E 17:16:32 10° S
Cosmos 1151 Rocket 3.8 17:08:29 10° SSW 17:12:39 51° WNW 17:16:50 10° N
Cosmos 1470 Rocket 3.8 17:08:42 10° NNW 17:13:02 70° W 17:17:18 10° S
MOS 1 Rocket 4.2 17:13:25 28° ENE 17:15:09 34° E 17:20:00 10° SSE
Cosmos 2263 4.1 17:14:05 10° NNW 17:19:44 80° ENE 17:25:20 10° SSE
Cosmos 158 Rocket 4.2 17:15:22 10° S 17:20:00 41° ESE 17:20:54 37° ENE
Cosmos 1515 Rocket 3.5 17:16:12 10° S 17:20:36 84° WNW 17:25:02 10° N
CZ-2C R/B 3.0 17:16:20 10° SE 17:21:08 51° ENE 17:25:47 10° N
Cosmos 1934 Rocket 4.4 17:15:51 10° N 17:21:48 40° ENE 17:27:40 10° SE
SWAS 4.3 17:18:35 10° SSW 17:22:50 71° ESE 17:24:10 42° NE
Cosmos 923 Rocket 4.2 17:18:24 10° S 17:23:22 47° ESE 17:24:50 37° ENE
Cosmos 1238 Rocket 3.1 17:21:15 10° N 17:25:09 51° E 17:29:53 10° SSE
COSMO-SKYMED 1 2.4 17:23:06 23° NNE 17:25:48 74° ESE 17:30:07 10° S
Cosmos 1689 Rocket 4.4 17:29:02 15° S 17:29:02 15° S 17:29:39 10° S
USA 281 3.2 17:21:31 10° SE 17:27:55 59° ENE 17:34:22 10° NNW
SAR-Lupe-4 3.4 17:29:13 70° E 17:29:22 72° ESE 17:32:57 10° S
X-37B 1.1 17:26:33 10° WSW 17:29:28 51° S 17:29:28 51° S
Nadezhda 3 Rocket 4.0 17:23:40 10° S 17:29:56 65° E 17:36:15 10° NNE
Helios 1A Rocket 3.2 17:33:25 47° NNE 17:33:25 47° NNE 17:36:35 10° N
Meteor 2-6 Rocket 4.0 17:27:29 10° S 17:33:01 71° E 17:37:14 17° NNE
Cosmos 2228 Rocket 3.0 17:28:41 10° S 17:33:10 66° E 17:34:29 43° NNE
Meteor 1-4 Rocket 4.0 17:31:21 10° SW 17:34:40 36° WNW 17:37:26 13° N
H-2A R/B 2.2 17:35:17 45° E 17:35:59 48° ENE 17:40:53 10° N
USA 267 3.4 17:34:11 36° E 17:36:44 56° NNE 17:43:06 10° NW
Cosmos 1812 2.7 17:33:11 10° S 17:36:35 64° SE 17:36:35 64° SE
Cosmos 1821 Rocket 3.9 17:31:34 10° N 17:37:52 83° E 17:44:12 10° S
Cosmos 1939 Rocket 3.5 17:34:51 10° S 17:38:39 54° W 17:42:32 10° NNW
CZ-4 R/B 4.5 17:36:16 10° S 17:40:24 78° WSW 17:44:34 10° NNW
CZ-4 R/B 1.4 17:41:26 60° NNE 17:41:26 60° NNE 17:44:53 10° N
Meteor 1-11 Rocket 3.8 17:35:15 10° N 17:40:59 59° ENE 17:46:47 10° SSE
NOSS 3-3 (A) 4.4 17:34:34 10° NW 17:42:02 77° NE 17:47:58 21° SE
NOSS 3-3 (C) 4.4 17:34:38 10° NW 17:42:07 76° NE 17:47:58 22° SE
PSLV R/B 3.7 17:42:19 73° SE 17:42:19 73° SE 17:46:12 10° S
Cosmos 1933 Rocket 4.5 17:38:43 10° NNW 17:43:03 50° W 17:47:20 10° SSW
Cosmos 44 Rocket 3.3 17:38:15 10° NW 17:43:27 80° NE 17:45:09 44° SE
CSL-04 Rocket 3.9 17:44:05 46° NE 17:44:05 46° NE 17:48:33 10° N
BREEZE-M DEB (TANK) 3.8 17:40:52 10° SSW 17:42:53 21° S 17:42:53 21° S
IRS-1C Rocket 4.3 17:39:40 10° S 17:44:56 70° WSW 17:50:13 10° NNW
SAR-Lupe-1 4.2 17:46:35 70° WSW 17:46:35 70° WSW 17:49:55 10° SSW
Lacrosse 4 Rocket 3.5 17:46:08 10° S 17:46:59 15° S 17:46:59 15° S
SL-24 R/B 4.0 17:49:33 61° NW 17:49:55 66° WNW 17:53:32 10° SSW
Cosmos 1680 Rocket 3.4 17:45:01 10° S 17:50:11 61° ESE 17:50:18 61° E
Cosmos 1603 3.8 17:48:57 10° SSW 17:54:34 75° WNW 17:56:56 36° NNE
CZ-2D R/B 4.1 17:51:49 10° S 17:55:31 49° W 17:59:17 10° NNW
Cosmos 1943 3.2 17:52:16 10° SSW 17:57:56 79° WNW 17:59:58 42° NNE
Cosmos 2369 Rocket 3.5 17:54:00 10° NW 17:59:16 39° WSW 18:04:27 10° S
Cosmos 1943 Rocket 4.4 17:55:54 10° NW 18:00:15 24° WSW 18:04:37 10° SSW
Okean-O 2.9 17:59:26 10° S 18:03:49 64° WSW 18:08:14 10° NNW
Cosmos 1371 Rocket 4.2 17:59:24 10° NNW 18:03:40 57° N 18:03:40 57° N
Cosmos 1461 4.4 18:00:16 10° SSW 18:02:44 30° S 18:02:44 30° S
ARGOS 4.0 18:08:31 37° N 18:08:31 37° N 18:11:48 10° N
ISS -1.4 18:04:36 10° WNW 18:05:55 22° WNW 18:05:55 22° WNW
CENTAUR R/B 2.5 18:02:22 10° SSW 18:07:45 57° SE 18:07:45 57° SE
Cosmos 2112 Rocket 4.2 18:05:29 10° SSW 18:09:53 61° S 18:09:53 61° S
Cosmos 2056 Rocket 4.0 18:05:36 10° NNW 18:09:29 48° N 18:09:29 48° N
ERS-2 4.4 18:10:45 20° NW 18:12:01 23° WNW 18:14:58 10° WSW
NOSS 3-2 (C) 3.6 18:10:40 10° SSW 18:15:09 53° SSE 18:15:09 53° SSE
Cosmos 1869 Rocket 4.3 18:13:26 10° NNW 18:17:48 53° W 18:17:48 53° W
BREEZE-M DEB (TANK) 4.0 18:14:35 10° WSW 18:19:59 46° SW 18:19:59 46° SW
Meteor 1-27 Rocket 4.1 18:16:11 10° S 18:20:11 50° S 18:20:11 50° S
Lacrosse 5 rocket 3.9 18:25:10 10° NW 18:25:53 13° NW 18:25:53 13° NW
Cosmos 371 Rocket 4.5 18:25:02 10° NNW 18:28:01 36° NW 18:28:01 36° NW
NOSS 3-2 (A) 3.7 18:35:58 10° SW 18:41:27 63° NW 18:41:27 63° NW
USA 215 3.2 18:46:42 78° W 18:46:42 78° W 18:52:52 10° WSW
USA 238 DEB 4.1 18:54:35 10° WSW 19:00:35 57° WNW 19:00:35 57° WNW
USA 238 4.1 18:54:41 10° WSW 19:00:39 57° WNW 19:00:39 57° WNW
H-2A R/B 4.0 19:15:55 25° W 19:15:55 25° W 19:19:51 10° NW
USA 267 4.1 19:21:32 46° W 19:21:32 46° W 19:26:12 10° WNW
